Elmira, NY
on Saturday, December 9, 2017

Saturday
       
Previous Day Next Day
Daily Summary
 ActualAverageRecord
Temperature
Mean Temperature °F °C °F °C  
Max Temperature 33°F 1°C 38°F 3°C 64°F 17°C (1966)
Min Temperature 19°F -7°C 23°F -5°C 1°F -17°C (2000)
Degree Days
Heating Degree Days 39    
Moisture
Dew Point 17°F -8°C   
Average Humidity 71    
Maximum Humidity 89    
Minimum Humidity 52    
Precipitation
Precipitation 0.00 in / 0.00 cm in / cm in / cm ()
Wind
Wind Speed 2 mph / 3 km/h   
Max Wind Speed 5 mph / 8 km/h   
Max Gust Speed mph / km/h   
Visibility 10 miles / 16 kilometers   
Events     
Averages and records for this station are not official NWS values.
Key: T is trace of precipitation, MM is missing value
Source: NWS Daily Summary
Seasonal Weather Averages
Time(EST)TemperatureDew PointHumidity Pressure Visibility Wind DirectionWind SpeedGust SpeedPrecipitationEvents Conditions
12:53 AM 23.0°F -5.0°C 16.0°F -8.9°C 74% 29.96 in / 1014.3 hPa 10.0 miles / 16.1 kilometers SW 3.5 mph / 5.6 km/h - N/A   Clear
1:53 AM 24.1°F -4.4°C 15.1°F -9.4°C 69% 29.96 in / 1014.4 hPa 10.0 miles / 16.1 kilometers SW 4.6 mph / 7.4 km/h - N/A   Clear
2:53 AM 25.0°F -3.9°C 15.1°F -9.4°C 66% 29.95 in / 1014.1 hPa 10.0 miles / 16.1 kilometers SW 4.6 mph / 7.4 km/h - N/A   Clear
3:53 AM 25.0°F -3.9°C 15.1°F -9.4°C 66% 29.94 in / 1013.6 hPa 10.0 miles / 16.1 kilometers Calm Calm - N/A   Clear
4:53 AM 21.9°F -5.6°C 15.1°F -9.4°C 75% 29.95 in / 1014.2 hPa 10.0 miles / 16.1 kilometers Calm Calm - N/A   Clear
5:53 AM 21.9°F -5.6°C 16.0°F -8.9°C 78% 29.94 in / 1013.7 hPa 10.0 miles / 16.1 kilometers Calm Calm - N/A   Clear
6:53 AM 21.9°F -5.6°C 17.1°F -8.3°C 82% 29.95 in / 1014.2 hPa 10.0 miles / 16.1 kilometers Calm Calm - N/A   Clear
7:53 AM 21.9°F -5.6°C 16.0°F -8.9°C 78% 29.95 in / 1014.2 hPa 10.0 miles / 16.1 kilometers Calm Calm - N/A   Clear
8:53 AM 25.0°F -3.9°C 19.0°F -7.2°C 78% 29.93 in / 1013.3 hPa 10.0 miles / 16.1 kilometers Calm Calm - N/A   Clear
9:53 AM 27.0°F -2.8°C 18.0°F -7.8°C 69% 29.90 in / 1012.3 hPa 10.0 miles / 16.1 kilometers North 3.5 mph / 5.6 km/h - N/A   Clear
10:53 AM 28.0°F -2.2°C 17.1°F -8.3°C 63% 29.88 in / 1011.9 hPa 10.0 miles / 16.1 kilometers Calm Calm - N/A   Clear
11:53 AM 30.0°F -1.1°C 17.1°F -8.3°C 59% 29.84 in / 1010.5 hPa 10.0 miles / 16.1 kilometers NNE 3.5 mph / 5.6 km/h - N/A   Clear
12:53 PM 30.0°F -1.1°C 17.1°F -8.3°C 59% 29.82 in / 1009.7 hPa 10.0 miles / 16.1 kilometers Calm Calm - N/A   Clear
1:53 PM 33.1°F 0.6°C 17.1°F -8.3°C 52% 29.79 in / 1008.8 hPa 10.0 miles / 16.1 kilometers Calm Calm - N/A   Clear
2:53 PM 33.1°F 0.6°C 17.1°F -8.3°C 52% 29.77 in / 1008.1 hPa 10.0 miles / 16.1 kilometers ENE 3.5 mph / 5.6 km/h - N/A   Clear
3:53 PM 32.0°F 0.0°C 18.0°F -7.8°C 56% 29.77 in / 1007.9 hPa 10.0 miles / 16.1 kilometers ENE 4.6 mph / 7.4 km/h - N/A   Clear
4:53 PM 30.0°F -1.1°C 18.0°F -7.8°C 61% 29.77 in / 1008.0 hPa 10.0 miles / 16.1 kilometers Calm Calm - N/A   Clear
5:53 PM 27.0°F -2.8°C 18.0°F -7.8°C 69% 29.78 in / 1008.2 hPa 10.0 miles / 16.1 kilometers Calm Calm - N/A   Clear
6:53 PM 25.0°F -3.9°C 17.1°F -8.3°C 72% 29.78 in / 1008.3 hPa 10.0 miles / 16.1 kilometers Calm Calm - N/A   Clear
7:53 PM 19.9°F -6.7°C 14.0°F -10.0°C 78% 29.77 in / 1007.9 hPa 10.0 miles / 16.1 kilometers South 3.5 mph / 5.6 km/h - N/A   Clear
8:53 PM 19.9°F -6.7°C 17.1°F -8.3°C 89% 29.78 in / 1008.2 hPa 10.0 miles / 16.1 kilometers Calm Calm - N/A   Clear
9:53 PM 21.9°F -5.6°C 17.1°F -8.3°C 82% 29.78 in / 1008.4 hPa 10.0 miles / 16.1 kilometers Calm Calm - N/A   Clear
10:53 PM 21.9°F -5.6°C 18.0°F -7.8°C 85% 29.78 in / 1008.4 hPa 10.0 miles / 16.1 kilometers WNW 3.5 mph / 5.6 km/h - N/A   Partly Cloudy
11:53 PM 23.0°F -5.0°C 19.0°F -7.2°C 85% 29.78 in / 1008.2 hPa 10.0 miles / 16.1 kilometers Calm Calm - N/A   Overcast